weather.gov     
National Weather Service

Miscellaneous Local Product
NWS Homepage
This page is being discontinued on March 12, 2014.
The same data is available at this site. Please update your bookmarks.
Thank you, and we apologize for the inconvenience.
Please send an email to SR-SRH.Webmaster@noaa.gov with any concerns.


Current Version
Previous Version:    01  02  03  04  05  06  07  08  09  10  11  12  13  14  15  16  17  18  19  20  21  22  23  24  25  26  27  28  29  30  
   31  32  33  34  35  36  37  38  39  40  41  42  43  44  45  46  47  48  49  50  51  52  53  54  55  56  57  58  59  60  
[Printable]
698
AXUS43 KGID 190310
MISGRI

GID CWA HOURLY WEATHER ROUNDUP
NATIONAL WEATHER SERVICE HASTINGS NE
1000 PM CDT THU SEP 18 2014

NOTE: "FAIR" INDICATES FEW OR NO CLOUDS BELOW 12,000 FEET WITH NO
SIGNIFICANT WEATHER AND/OR OBSTRUCTIONS TO VISIBILITY.

...SOUTH CENTRAL NEBRASKA...

CITY           SKY/WX    TMP DP  RH WIND       PRES   REMARKS
GRAND ISLAND   CLEAR     68  63  84 SE9       29.91S
HASTINGS       CLEAR     68  61  78 SE13      29.91R
KEARNEY        CLEAR     64  63  94 E9        29.91S
ORD            PTCLDY    67  64  90 SE6       29.89S
YORK           CLEAR     64  63  94 SE15      29.94R
AURORA         CLEAR     67  65  91 SE10      29.92S
LEXINGTON      FOG       61  60  97 E5        29.91S VSB 1/4
HOLDREGE       CLEAR     63  61  93 E3        29.90S
HEBRON         CLOUDY    65  61  86 SE13G18   29.95R

...NEBRASKA PANHANDLE...

CITY           SKY/WX    TMP DP  RH WIND       PRES   REMARKS
CHADRON        CLEAR     75  62  64 S20       29.77R
ALLIANCE       CLEAR     65  62  90 S16       29.87R
SCOTTSBLUFF    CLEAR     70  62  76 SE9       29.86R
SIDNEY         CLEAR     68  61  78 SE12      29.92S

...WESTERN AND NORTH CENTRAL NEBRASKA...

CITY           SKY/WX    TMP DP  RH WIND       PRES   REMARKS
VALENTINE      PTCLDY    65  61  87 S9        29.84R
AINSWORTH      PTCLDY    64  61  91 S7        29.86S
ONEILL         CLOUDY    71  66  82 S14       29.88S
BROKEN BOW     CLOUDY    68  65  90 SE8       29.91R
IMPERIAL       CLEAR     62  60  93 SE8       29.91R
NORTH PLATTE   CLEAR     57  56  96 SE6       29.91R
MCCOOK         CLEAR     62  61  96 E3        29.90S

...EASTERN NEBRASKA...

CITY           SKY/WX    TMP DP  RH WIND       PRES   REMARKS
NORFOLK        PTCLDY    66  58  75 SE17      29.92S
SO SIOUX CITY  CLEAR     64  57  78 SE12      29.94F
TEKAMAH        CLEAR     63  56  78 SE8       29.97R
ALBION         CLEAR     64  60  89 SE6       29.91S
OMAHA EPPLEY   CLEAR     65  57  75 SE14      29.98R
OFFUTT AFB     CLEAR     62  62  99 E10       29.98R
MILLARD        CLEAR     64  59  82 SE10G16   29.98S
LINCOLN        CLEAR     63  58  83 SE14      29.97R
NEBRASKA CITY  CLEAR     60  58  93 S7        30.00S
BEATRICE       CLOUDY    63  60  91 SE8       29.98R
FALLS CITY     CLEAR     60  58  92 SE6       30.00R

...NORTHERN KANSAS...

CITY           SKY/WX    TMP DP  RH WIND       PRES   REMARKS
GOODLAND       CLEAR     73  54  51 S14       29.94R
HILL CITY      CLEAR     67  64  90 CALM      29.89R
NORTON         CLEAR     64  61  88 CALM      29.89S FOG
PHILLIPSBURG   CLEAR     72  61  68 E8        29.90R
SMITH CENTER   CLEAR     72  63  73 SE21G28   29.92R
BELOIT         PTCLDY    70  64  83 SE15G22   29.93R
HAYS           CLEAR     73  61  64 S10       29.91R
RUSSELL        CLEAR     72  61  68 SE13      29.91R
CONCORDIA      MOCLDY    64  63  94 SE18G24   29.96R
SALINA         CLEAR     71  66  84 SE13      29.96R
TOPEKA         CLEAR     63  61  93 E3        30.01R FOG




U.S. Dept. of Commerce
NOAA National Weather Service
1325 East West Highway
Silver Spring, MD 20910
E-mail: w-nws.webmaster@noaa.gov
Page last modified: May 16, 2007
NATIONAL WEATHER SERVICE: for Safety, for Work, for Fun - FOR LIFE